This is the latest recevied weather packets stored in our database for station/object IU7LMH-13. If no packets are shown the sender has not sent any weather packets the latest 10 day(s).
| Time | Temp. | Humidity | Pressure | Rain* | Wind** | Luminosity | Snow |
|---|---|---|---|---|---|---|---|
| 1777895018 | 23.33° C | 47% | 1017.7 hPa | 0 mm | - | - | - |
| 1777894898 | 23.89° C | 49% | 1017.8 hPa | 0 mm | - | - | - |
| 1777894780 | 23.89° C | 51% | 1017.9 hPa | 0 mm | - | - | - |
| 1777894544 | 23.33° C | 49% | 1017.7 hPa | 0 mm | - | - | - |
| 1777894418 | 23.33° C | 52% | 1017.7 hPa | 0 mm | - | - | - |
| 1777893459 | 23.89° C | 50% | 1017.8 hPa | 0 mm | - | - | - |
| 1777892145 | 23.89° C | 46% | 1018.1 hPa | 0 mm | - | - | - |
| 1777888657 | 23.89° C | 46% | 1018.3 hPa | 0 mm | - | - | - |
| 1777888545 | 24.44° C | 47% | 1018.4 hPa | 0 mm | - | - | - |
| 1777888417 | 24.44° C | 46% | 1018.3 hPa | 0 mm | - | - | - |
| 1777887818 | 24.44° C | 45% | 1018.3 hPa | 0 mm | - | - | - |
| 1777887578 | 24.44° C | 46% | 1018.6 hPa | 0 mm | - | - | - |
| 1777887097 | 24.44° C | 48% | 1018.5 hPa | 0 mm | - | - | - |
| 1777886618 | 23.89° C | 49% | 1018.5 hPa | 0 mm | - | - | - |
| 1777886497 | 23.89° C | 49% | 1018.6 hPa | 0 mm | - | - | - |
| 1777885418 | 22.22° C | 53% | 1018.8 hPa | 0 mm | - | - | - |
| 1777884578 | 22.78° C | 55% | 1018.7 hPa | 0 mm | - | - | - |
| 1777884457 | 22.78° C | 54% | 1018.9 hPa | 0 mm | - | - | - |
| 1777884218 | 23.33° C | 55% | 1018.9 hPa | 0 mm | - | - | - |
| 1777883379 | 23.89° C | 52% | 1018.9 hPa | 0 mm | - | - | - |
| 1777883257 | 23.33° C | 46% | 1018.8 hPa | 0 mm | - | - | - |
| 1777881943 | 24.44° C | 43% | 1018.9 hPa | 0 mm | - | - | - |
| 1777880977 | 23.33° C | 43% | 1018.9 hPa | 0 mm | - | - | - |
| 1777880498 | 22.78° C | 46% | 1018.9 hPa | 0 mm | - | - | - |
| 1777879544 | 21.67° C | 48% | 1019 hPa | 0 mm | - | - | - |
* Rain latest hour (hover to see other rain measurements)
** Current wind speed in m/s (hover to see current wind gust speed)